[[{"header":{"parameterUnit":"m.s-1","parameterCategory":1,"la1":30.2992,"la2":30.254,"lo1":-89.0895,"lo2":-89.0443,"dy":0.0025,"dx":0.0025,"nx":19,"ny":19,"refTime":"2026-03-25T09:00:00:Z","depth":0,"parameterNumber":2,"parameterNumberName":"U-component_of_WINDS"},"data":[0,0,0,-1.7453,-1.7454,-1.7523,-1.7524,-1.7621,-1.7622,0,0,0,0,0,0,0,0,0,0,0,-1.7435,-1.7436,-1.7452,-1.7454,-1.7523,-1.7524,-1.7621,-1.7622,0,0,0,0,0,0,0,0,0,0,0,-1.7435,-1.7436,-1.7437,-1.7455,-1.7523,-1.7524,-1.762,-1.7566,0,0,0,0,0,0,0,0,0,0,-1.7497,-1.7484,-1.7436,-1.7437,-1.7455,-1.7523,-1.7524,-1.7563,-1.7569,-1.7593,0,-1.7613,0,-1.7619,-1.7628,-1.7629,0,0,0,-1.7452,-1.7479,-1.7494,-1.7437,-1.7456,-1.7523,-1.7492,-1.7566,-1.7573,-1.7601,-1.7614,-1.7617,-1.762,-1.7629,-1.763,-1.7768,-1.7769,0,0,-1.7448,-1.745,-1.7489,-1.7499,-1.7487,-1.7489,-1.7494,-1.757,-1.7586,-1.7614,-1.762,-1.7622,-1.763,-1.7631,-1.7767,-1.7768,0,0,0,-1.7439,-1.7448,-1.7461,-1.7495,-1.7507,-1.7491,-1.7496,-1.7582,-1.7586,-1.7621,-1.7623,-1.763,-1.7632,-1.7766,-1.7768,-1.7805,0,0,0,-1.7436,-1.7442,-1.7459,-1.7461,-1.7506,-1.7545,-1.7507,-1.7581,-1.7589,-1.7622,-1.763,-1.7633,-1.7766,-1.7767,-1.7802,-1.7822,0,0,0,-1.743,-1.7441,-1.7452,-1.7461,-1.7491,-1.7544,-1.7552,-1.7583,-1.7591,-1.7629,-1.7633,-1.7765,-1.7767,-1.78,-1.7818,-1.7859,0,0,0,-1.7424,-1.7485,-1.7453,-1.7522,-1.749,-1.7566,-1.7552,-1.7608,-1.7645,-1.7631,-1.7766,-1.7768,-1.7799,-1.7816,-1.7856,-1.7893,-1.7909,0,0,-1.7502,-1.7495,-1.7535,-1.7508,-1.759,-1.7555,-1.7643,-1.7676,-1.7679,-1.7739,-1.7742,-1.7803,-1.7818,-1.7858,-1.7995,-1.8008,0,0,0,-1.7561,-1.759,-1.7612,-1.7646,-1.7671,-1.7696,-1.7715,-1.7727,-1.7778,-1.7709,-1.7829,-1.7838,-1.7861,-1.7879,-1.789,-1.791,-1.7776,-1.7776,-1.7775,-1.7674,-1.7674,-1.7741,-1.7749,-1.7783,-1.7802,-1.783,-1.785,-1.7841,-1.7869,-1.7887,-1.797,-1.799,-1.7998,-1.8019,-1.7906,-1.7907,-1.7907,-1.7907,-1.7789,-1.783,-1.7816,-1.7876,-1.7876,-1.7927,-1.7949,-1.794,-1.7989,-1.7956,-1.7977,-1.7941,-1.8012,-1.803,-1.791,-1.7909,-1.7909,-1.7909,-1.7908,-1.7863,-1.7883,-1.7896,-1.7945,-1.7984,-1.7991,-1.8038,-1.8037,-1.8036,-1.8057,-1.8075,-1.8075,-1.8074,-1.8066,-1.8066,-1.8066,-1.8067,-1.8067,-1.8067,-1.7934,-1.7948,-1.7987,-1.8019,-1.8041,-1.807,-1.8091,-1.8113,-1.8138,-1.8133,-1.8133,-1.8121,-1.8018,-1.7992,-1.8071,-1.8071,-1.807,-1.807,-1.8069,-1.8051,-1.8024,-1.8084,-1.8106,-1.8144,-1.8183,-1.8181,-1.8226,-1.8245,-1.8269,-1.8253,-1.8176,-1.8169,-1.8161,-1.8139,-1.8252,-1.8252,-1.8252,-1.8252,-1.8113,-1.8109,-1.817,-1.8205,-1.8239,-1.8243,-1.8313,-1.833,-1.8344,-1.8356,-1.834,-1.8311,-1.8303,-1.83,-1.8289,-1.8269,-1.8412,-1.8412,-1.8412,-1.8184,-1.8183,-1.8242,-1.8253,-1.8283,-1.831,-1.8375,-1.8418,-1.8429,-1.8419,-1.8365,-1.8358,-1.8312,-1.8297,-1.8286,-1.8268,-1.8231,0,0]},{"header":{"parameterUnit":"m.s-1","parameterCategory":1,"la1":30.2992,"la2":30.254,"lo1":-89.0895,"lo2":-89.0443,"dy":0.0025,"dx":0.0025,"nx":19,"ny":19,"refTime":"2026-03-25T09:00:00:Z","depth":0,"parameterNumber":3,"parameterNumberName":"V-component_of_WINDS"},"data":[0,0,0,1.3574,1.3575,1.3603,1.3603,1.3643,1.3644,0,0,0,0,0,0,0,0,0,0,0,1.3568,1.3568,1.3574,1.3575,1.3603,1.3603,1.3643,1.3644,0,0,0,0,0,0,0,0,0,0,0,1.3567,1.3568,1.3568,1.3575,1.3603,1.3603,1.3643,1.362,0,0,0,0,0,0,0,0,0,0,1.3592,1.3588,1.3568,1.3568,1.3575,1.3603,1.3603,1.3619,1.3622,1.3632,0,1.3641,0,1.3643,1.3646,1.3647,0,0,0,1.3573,1.3586,1.3592,1.3568,1.3575,1.3603,1.359,1.362,1.3623,1.3635,1.3642,1.3643,1.3644,1.3647,1.3647,1.3711,1.3711,0,0,1.3572,1.3574,1.359,1.3594,1.359,1.3589,1.3591,1.3622,1.3629,1.3642,1.3644,1.3644,1.3647,1.3647,1.371,1.3711,0,0,0,1.3568,1.3573,1.3578,1.3592,1.3597,1.359,1.3592,1.3628,1.3629,1.3644,1.3645,1.3647,1.3648,1.371,1.3711,1.3731,0,0,0,1.3567,1.3571,1.3577,1.3579,1.3597,1.3613,1.3597,1.3627,1.3631,1.3645,1.3647,1.3648,1.371,1.371,1.373,1.3741,0,0,0,1.3565,1.357,1.3575,1.3579,1.3591,1.3612,1.3616,1.3628,1.3631,1.3647,1.3648,1.3709,1.371,1.3729,1.3738,1.3758,0,0,0,1.3563,1.3592,1.3576,1.3609,1.3591,1.3625,1.3615,1.3641,1.3656,1.3647,1.371,1.3711,1.3728,1.3737,1.3757,1.3776,1.3783,0,0,1.3601,1.3597,1.3616,1.3602,1.364,1.3621,1.3662,1.3673,1.3673,1.3698,1.37,1.373,1.3738,1.3758,1.3827,1.3834,0,0,0,1.3629,1.3643,1.3653,1.3668,1.3679,1.3689,1.3694,1.3699,1.3721,1.3686,1.3743,1.3748,1.3759,1.3768,1.3773,1.3783,1.3715,1.3715,1.3714,1.3685,1.3684,1.3716,1.3718,1.3733,1.374,1.3752,1.3759,1.3753,1.3766,1.3774,1.3816,1.3826,1.383,1.3841,1.3783,1.3783,1.3783,1.3784,1.3741,1.376,1.3752,1.3781,1.3779,1.3803,1.3811,1.3805,1.3827,1.381,1.382,1.3801,1.3837,1.3846,1.3785,1.3785,1.3785,1.3784,1.3784,1.3777,1.3786,1.3792,1.3815,1.3834,1.3835,1.3857,1.3854,1.3852,1.3862,1.387,1.387,1.3869,1.3866,1.3866,1.3867,1.3867,1.3867,1.3867,1.3812,1.3819,1.3837,1.3852,1.3863,1.3876,1.3884,1.3894,1.3904,1.3901,1.3901,1.3893,1.3841,1.3828,1.3869,1.3869,1.3868,1.3868,1.3868,1.3869,1.3856,1.3885,1.3896,1.3914,1.3932,1.393,1.3951,1.3959,1.397,1.396,1.3922,1.3917,1.3913,1.3902,1.396,1.396,1.396,1.396,1.39,1.3898,1.3928,1.3945,1.3961,1.3962,1.3996,1.4003,1.4008,1.4013,1.4004,1.399,1.3985,1.3983,1.3978,1.3967,1.4041,1.4041,1.4041,1.3935,1.3934,1.3963,1.3969,1.3983,1.3995,1.4027,1.4047,1.405,1.4044,1.4017,1.4013,1.399,1.3982,1.3975,1.3966,1.3947,0,0]}]]